Location: Dead Woman Crossing
(43.5369°N, 106.3228°W)
Time: 08:36:27
(UTC+00:00)

ITUPSAT 1 - Pass Details

Date: 04 July 2022
Orbit: 701 x 711 km, 98.6° (Epoch: 13 August)

Event Time Altitude Azimuth Distance (km) Brightness Sun altitude
Rises 03:18:27 0° 17° (NNE) 3,112 ? -5.0°
Reaches altitude 10° 03:20:45 10° 20° (NNE) 2,190 ? -5.4°
Maximum altitude 03:25:30 62° 102° (ESE) 799 ? -6.0°
Drops below altitude 10° 03:30:14 10° 183° (S) 2,178 ? -6.7°
Sets 03:32:30 0° 186° (S) 3,094 ? -7.0°
